Weather Roundup
Issued by NWS Springfield, MO

Home | Current Version | Previous Version | Text Only | Print | Product List | Glossary On
Versions: 1 2 3 4 5 6 7 8 9 10 11 12 13 14 15 16 17 18 19 20 21 22 23 24 25 26 27 28 29 30 31 32 33 34 35 36 37 38 39 40 41 42 43 44 45 46 47 48 49 50
000
NZUS99 KSGF 281407
HRRSGF

HOURLY WEATHER
NATIONAL WEATHER SERVICE SPRINGFIELD MO
900 AM CDT SAT MAY 28 2016

......SGF CWA......

CITY           SKY/WX    TMP DP  RH WIND       PRES   REMARKS
SPRINGFIELD    SUNNY     69  62  78 S14       29.91R
JOPLIN         CLOUDY    66  62  87 SW15      29.90R
WEST PLAINS    MOSUNNY   69  62  78 S8        29.96R
ROLLA          MOSUNNY   70  64  81 S12       29.90R
BRANSON        PTSUNNY   66  63  88 E5        29.93R

......SURROUNDING SGF CWA......

CITY           SKY/WX    TMP DP  RH WIND       PRES   REMARKS
CHANUTE        MOSUNNY   67  60  78 SW17G26   29.85R
PARSONS        PTSUNNY   67  61  81 SW12G17   29.88R
COFFEYVILLE    PTSUNNY   68  61  78 SW16      29.88R
EMPORIA        CLOUDY    63  59  87 W8        29.83R
GROVE OK       CLOUDY    70  63  78 SW8       29.93R
ROGERS AR      CLOUDY    65  62  90 SW12G17   29.95R
SILOAM SPRINGS CLOUDY    64  55  72 SW14      29.95R
HARRISON AR    CLOUDY    69  62  78 S7        29.93R
NEAR YELLVILLE CLOUDY   N/A N/A N/A SE3       29.89R

......KANSAS AND MISSOURI......

CITY           SKY/WX    TMP DP  RH WIND       PRES   REMARKS
KANSAS CTY INT PTSUNNY   65  61  87 S14       29.79R
DOWNTOWN KC    CLOUDY    66  61  84 S13       29.80R
COLUMBIA       MOSUNNY   70  65  84 S13       29.88R
SEDALIA        CLOUDY    71  63  75 S14       29.85R
ST JOSEPH      PTSUNNY   65  62  90 S13       29.77S
ST LOUIS       CLOUDY    73  65  75 S15       29.93R
SPIRIT OF STL  CLOUDY    72  66  81 S8        29.90R
KIRKSVILLE     SUNNY     69  63  81 S13       29.84S
WICHITA        MOSUNNY   66  58  75 W10       29.88R
TOPEKA         CLOUDY    65  59  81 S12       29.80R
OLATHE         CLOUDY    65  61  87 SW13G23   29.81S

......TENNESSEE......

CITY           SKY/WX    TMP DP  RH WIND       PRES   REMARKS
MEMPHIS        PTSUNNY   76  67  73 S9        30.00R
NASHVILLE      CLOUDY    76  62  62 S6        30.10R

......ARKANSAS.......

CITY           SKY/WX    TMP DP  RH WIND       PRES   REMARKS
FAYETTEVILLE   PTSUNNY   68  63  84 SW9       29.94R
FT SMITH       SUNNY     71  63  75 VRB5      29.93R
LITTLE ROCK    PTSUNNY   70  64  81 CALM      29.96R

......OKLAHOMA.......

CITY           SKY/WX    TMP DP  RH WIND       PRES   REMARKS
TULSA          CLOUDY    70  64  81 SW7       29.90R
PONCA CITY     SUNNY     64  56  75 W5        29.89R
MCALESTER      CLOUDY    68  63  84 VRB3      29.96R
OKLAHOMA CITY  PTSUNNY   67  62  84 S7        29.94R

......IOWA............

CITY           SKY/WX    TMP DP  RH WIND       PRES   REMARKS
DES MOINES     PTSUNNY   67  63  87 S7        29.77S
QUAD CITIES    CLOUDY    74  66  76 S13       29.83R

......ILLINOIS........

CITY           SKY/WX    TMP DP  RH WIND       PRES   REMARKS
QUINCY         MOSUNNY   72  65  78 S9        29.87S
CHICAGO        CLOUDY    72  65  78 S17       29.89R




USA.gov is the U.S. government's official web portal to all federal, state and local government web resources and services.